Burlington, IA

6:58 AM CST on January 22, 2018 (GMT -0600)
Burlington Regional

Weather History for KBRL - January, 2014

Change the Weather History Date:

Wednesday, January 1, 2014

  Actual Average Record
Temperature  
Mean Temperature 15 °F 26 °F  
Max Temperature 17 °F 34 °F 55 °F (2004)
Min Temperature 12 °F 18 °F -16 °F (2018)
Degree Days  
Heating Degree Days 50 39  
Month to date heating degree days 50 39  
Since 1 July heating degree days 2567 2225  
Cooling Degree Days 0 0  
Month to date cooling degree days 0 0  
Year to date cooling degree days 0 0  
Moisture  
Dew Point 10 °F    
Average Humidity 81    
Maximum Humidity 88    
Minimum Humidity 73    
Precipitation  
Precipitation T in 0.05 in 0.42 in (2005)
Month to date precipitation T 0.05  
Year to date precipitation T 0.05  
Sea Level Pressure  
Sea Level Pressure 30.21 in    
Wind  
Wind Speed 14 mph (NNE)    
Max Wind Speed 22 mph    
Max Gust Speed 26 mph    
Visibility 4 miles    
Events Snow    
T = Trace of Precipitation, MM = Missing Value Source: NWS Daily Summary

Daily Weather History Graph

Daily Weather History Graph

Search for Another Location

Airport or City:

Trip Planner

Search our weather history database for the weather conditions in past years. The results will help you decide how hot, cold, wet, or windy it might be!

Date:

Astronomy

Jan. 01, 2014 Rise Set
Actual Time 7:28 AM CST 4:47 PM CST
Civil Twilight 6:57 AM CST 5:18 PM CST
Nautical Twilight 6:23 AM CST 5:52 PM CST
Astronomical Twilight 5:50 AM CST 6:26 PM CST
Moon 7:18 AM CST (1/1) 5:33 PM CST (1/1)
Length of Visible Light 10h 20m
Length of Day
9h 18m
New Moon, 0% of the Moon is Illuminated
Jan 1
New Moon
Jan 7
First Quarter
Jan 15
Full
Jan 23
Last Quarter
Jan 30
New

Hourly Weather History & Observations

Time (CST) Temp. Windchill Dew Point Humidity Pressure Visibility Wind Dir Wind Speed Gust Speed Precip Events Conditions
12:53 AM 15.1 °F 1.8 °F 10.0 °F 80% 30.21 in 10.0 mi ENE 11.5 mph - N/A   Clear
1:53 AM 15.1 °F 0.5 °F 10.0 °F 80% 30.21 in 10.0 mi NE 13.8 mph - N/A   Clear
2:53 AM 15.1 °F 2.5 °F 10.0 °F 80% 30.21 in 10.0 mi ENE 10.4 mph - N/A   Clear
3:53 AM 14.0 °F 0.5 °F 9.0 °F 80% 30.20 in 10.0 mi NE 11.5 mph - N/A   Clear
4:53 AM 12.9 °F -0.9 °F 9.0 °F 84% 30.19 in 10.0 mi NE 11.5 mph - N/A   Clear
5:32 AM 12.9 °F -2.8 °F 9.0 °F 84% 30.16 in 10.0 mi NE 15.0 mph - N/A   Mostly Cloudy
5:53 AM 12.9 °F -1.6 °F 8.1 °F 81% 30.20 in 10.0 mi NE 12.7 mph - N/A   Overcast
6:53 AM 12.0 °F -2.0 °F 8.1 °F 84% 30.21 in 10.0 mi NE 11.5 mph - N/A   Overcast
7:53 AM 12.9 °F -1.6 °F 9.0 °F 84% 30.22 in 8.0 mi NNE 12.7 mph - N/A   Overcast
8:49 AM 14.0 °F 0.5 °F 8.6 °F 79% 30.21 in 2.5 mi NE 11.5 mph - 0.00 in Snow Light Snow
8:53 AM 14.0 °F -0.2 °F 10.0 °F 84% 30.25 in 2.0 mi NNE 12.7 mph - 0.00 in Snow Light Snow
9:19 AM 12.9 °F -3.4 °F 9.0 °F 84% 30.19 in 1.8 mi NE 16.1 mph 25.3 mph 0.00 in Snow Light Snow
9:41 AM 14.0 °F -1.4 °F 9.0 °F 80% 30.21 in 2.0 mi NE 15.0 mph - 0.00 in Snow Light Snow
9:53 AM 14.0 °F -0.2 °F 10.0 °F 84% 30.26 in 2.0 mi NE 12.7 mph - 0.00 in Snow Light Snow
10:43 AM 15.1 °F 1.1 °F 10.0 °F 80% 30.21 in 1.8 mi NE 12.7 mph - 0.00 in Snow Light Snow
10:53 AM 15.1 °F 0.5 °F 10.0 °F 80% 30.24 in 1.8 mi NNE 13.8 mph - 0.00 in Snow Light Snow
11:03 AM 15.1 °F 0.5 °F 10.0 °F 80% 30.20 in 2.0 mi NNE 13.8 mph - 0.00 in Snow Light Snow
11:51 AM 15.8 °F 1.4 °F 10.4 °F 79% 30.19 in 3.0 mi NNE 13.8 mph - 0.00 in   Haze
11:53 AM 15.1 °F 1.1 °F 9.0 °F 77% 30.23 in 3.0 mi NNE 12.7 mph - 0.00 in Snow Light Snow
12:03 PM 15.1 °F 1.1 °F 10.0 °F 80% 30.18 in 2.5 mi NNE 12.7 mph - 0.00 in Snow Light Snow
12:25 PM 15.1 °F 1.1 °F 10.0 °F 80% 30.17 in 3.0 mi NNE 12.7 mph - 0.00 in Snow Light Snow
12:53 PM 15.1 °F 1.1 °F 10.0 °F 80% 30.21 in 4.0 mi NNE 12.7 mph - 0.00 in Snow Light Snow
1:53 PM 15.1 °F 1.8 °F 9.0 °F 77% 30.20 in 5.0 mi NNE 11.5 mph - 0.00 in   Haze
2:36 PM 15.1 °F -0.6 °F 10.0 °F 80% 30.15 in 1.8 mi NNE 16.1 mph - 0.00 in Snow Light Snow
2:51 PM 15.8 °F 1.4 °F 10.4 °F 79% 30.15 in 1.0 mi NNE 13.8 mph - 0.00 in Snow Light Snow
2:53 PM 15.1 °F 1.1 °F 10.0 °F 80% 30.19 in 1.0 mi NE 12.7 mph - 0.00 in Snow Light Snow
3:53 PM 15.1 °F 1.8 °F 10.9 °F 84% 30.21 in 1.0 mi NNE 11.5 mph - 0.00 in Snow Light Snow
4:16 PM 16.0 °F 3.6 °F 12.0 °F 84% 30.16 in 1.8 mi NNE 10.4 mph - 0.00 in Snow Light Snow
4:53 PM 16.0 °F 2.9 °F 12.0 °F 84% 30.20 in 2.0 mi NNE 11.5 mph - 0.00 in Snow Light Snow
5:06 PM 16.0 °F 2.3 °F 12.0 °F 84% 30.16 in 3.0 mi NNE 12.7 mph - 0.00 in Snow Light Snow
5:43 PM 16.0 °F 2.9 °F 12.9 °F 88% 30.18 in 2.0 mi NNE 11.5 mph - 0.00 in Snow Light Snow
5:53 PM 16.0 °F 2.3 °F 12.9 °F 88% 30.22 in 2.5 mi NNE 12.7 mph - 0.00 in Snow Light Snow
6:09 PM 16.0 °F 2.9 °F 12.9 °F 88% 30.18 in 2.0 mi NNE 11.5 mph - 0.00 in Snow Light Snow
6:26 PM 16.0 °F 1.1 °F 12.9 °F 88% 30.19 in 2.0 mi NNE 15.0 mph - 0.00 in Snow Light Snow
6:43 PM 16.0 °F 1.7 °F 12.9 °F 88% 30.19 in 3.0 mi NNE 13.8 mph - 0.00 in Snow Light Snow
6:50 PM 16.0 °F 1.7 °F 12.9 °F 88% 30.23 in 2.0 mi NNE 13.8 mph - 0.00 in Snow Light Snow
6:59 PM 16.0 °F 0.1 °F 12.9 °F 88% 30.19 in 1.8 mi NNE 17.3 mph - 0.00 in Snow Light Snow
7:53 PM 16.0 °F 0.1 °F 12.0 °F 84% 30.24 in 1.8 mi NNE 17.3 mph - 0.00 in Snow Light Snow
7:59 PM 16.0 °F 1.1 °F 12.0 °F 84% 30.20 in 2.0 mi NNE 15.0 mph - 0.00 in Snow Light Snow
8:53 PM 15.1 °F -1.6 °F 10.9 °F 84% 30.25 in 4.0 mi North 18.4 mph - 0.00 in Snow Light Snow
9:53 PM 15.1 °F -1.1 °F 10.0 °F 80% 30.26 in 10.0 mi North 17.3 mph - 0.00 in   Overcast
10:53 PM 14.0 °F -3.0 °F 8.1 °F 77% 30.25 in 10.0 mi North 18.4 mph 26.5 mph N/A   Overcast
11:53 PM 12.9 °F -2.2 °F 7.0 °F 77% 30.26 in 10.0 mi North 13.8 mph - N/A   Overcast